Погода в Крымске

Россия / Краснодарский край     44°56′05″N   37°59′10″E
темп.,
°C
ветер,
м/с
пор.,
м/с
влажн.,
%
обл.,
%
осадки,
мм/ч
давл.,
гПа
погр.,
м
9 декабря, чт
чт900:00+11юз3684100 0.0 1010111
03:00+10ююз2289100 0.0 101116
06:00+10зюз349168 0.0 101367
09:00+11зюз4679100 0.0 1015418
12:00+11зюз567293 0.0 1016750
15:00+11зюз5669100 0.0 1018956
18:00+10юз4667100 0.0 1019416
21:00+10юз3680100 0.1 1021267
10 декабря, пт
пт1000:00+9юз368599 0.1 1021158
03:00+9ю238599 0.1 102280
06:00+9ю228563 0.1 102343
09:00+8ю22855 0.1 102445
12:00+12вюв23645 0.0 1023410
15:00+13в33585 0.0 1023512
18:00+10в37780 0.0 1022150
21:00+9вюв410815 0.0 1022243
11 декабря, сб
сб1100:00+8в38845 0.0 1021179
03:00+7в388755 0.0 1021164
06:00+6в4888100 0.0 1020183
09:00+7в3786100 0.0 1021182
12:00+11в456642 0.0 1020258
15:00+12в356291 0.0 1020206
18:00+9в3576100 0.0 102297
21:00+8вюв24785 0.0 102282
12 декабря, вс
вс1200:00+7в24815 0.0 102257
03:00+6всв3583100 0.0 102276
06:00+5в3684100 0.0 1022130
09:00+5в3781100 0.0 1022191
12:00+9в4763100 0.0 1021292
15:00+10в4860100 0.0 1020316
18:00+8в41070100 0.0 1019276
21:00+7в4972100 0.0 1019240
13 декабря, пн
пн1300:00+5в377884 0.0 1018155
03:00+4в37825 0.0 1018133
06:00+4в36840 0.0 1017114
09:00+4в368163 0.0 1017128
12:00+8в4564100 0.0 1017197
15:00+9в4660100 0.0 1016221
18:00+7в2471100 0.0 101773
21:00+6в2478100 0.0 101781